[[{"header":{"parameterUnit":"m.s-1","parameterCategory":1,"la1":30.2991,"la2":30.254,"lo1":-89.0895,"lo2":-89.0444,"dy":0.0017,"dx":0.0017,"nx":28,"ny":28,"refTime":"2025-08-06T03:00:00:Z","depth":0,"parameterNumber":2,"parameterNumberName":"U-component_of_WINDS"},"data":[0,0,0,0,0,0,0,0,0,0,0,0,0,0,0,0,0,0,0,0,0,0,0,0,0,0,0,0,0,0,0,0,0,0,0,0,0,0,0,0,0,0,0,0,0,0,0,0,0,0,0,0,0,0,0,0,0,0,0.2527,0.2528,0,0.2641,0.2642,0.2643,0.2657,0.2656,0.2655,0.2654,0.2774,0.2778,0.2782,0,0,0,0,0,0,0,0,0,0,0,0,0,0.2325,0.2329,0.2527,0.2529,0.253,0.2641,0.2642,0.2644,0.2657,0.2656,0.2654,0.2653,0.2772,0.2777,0.2783,0,0,0,0,0,0,0,0,0,0,0,0,0,0.2423,0.233,0.2527,0.255,0.2553,0.264,0.2642,0.2644,0.2658,0.2656,0.2654,0.2653,0.2771,0.2777,0.2783,0.2856,0,0,0.2803,0.2805,0,0,0,0,0,0,0,0,0.2418,0.2431,0.2545,0.2549,0.2552,0.2633,0.2615,0.2715,0.2658,0.2618,0.2654,0.2652,0.2729,0.2738,0.2763,0.2862,0.2867,0.2803,0.2807,0.281,0.2812,0,0,0,0,0,0,0,0.2411,0.2426,0.2572,0.2547,0.2551,0.2556,0.2568,0.2634,0.2682,0.2621,0.2623,0.2636,0.273,0.2757,0.2766,0.2869,0.2803,0.2809,0.2813,0.2815,0.3033,0.3035,0,0,0,0,0,0,0.2399,0.242,0.2569,0.2576,0.2479,0.2561,0.2574,0.2609,0.2681,0.269,0.2637,0.2636,0.2747,0.2759,0.2771,0.2861,0.281,0.2816,0.2819,0.3031,0.3034,0.3036,0,0,0,0,0,0,0.2395,0.2412,0.2564,0.2498,0.2518,0.2566,0.2605,0.2612,0.2639,0.2693,0.2701,0.2656,0.2746,0.2762,0.2835,0.2866,0.2819,0.2824,0.3029,0.3032,0.3035,0.3043,0,0,0,0,0,0,0.2389,0.2411,0.2438,0.2499,0.2521,0.2625,0.2607,0.2615,0.2649,0.2649,0.2712,0.2721,0.2746,0.2825,0.2841,0.2873,0.2829,0.3027,0.303,0.3034,0.304,0.3045,0.305,0,0,0,0,0,0.2382,0.2437,0.244,0.2457,0.2557,0.2627,0.264,0.2666,0.2652,0.268,0.2715,0.2719,0.2859,0.2832,0.285,0.2885,0.3025,0.3029,0.3034,0.3038,0.3044,0.305,0,0,0,0,0,0,0.238,0.2445,0.2449,0.2525,0.257,0.2629,0.2666,0.2673,0.2724,0.2722,0.2753,0.2768,0.2839,0.287,0.2838,0.296,0.2941,0.2949,0.2938,0.2945,0.295,0.2941,0.2835,0,0,0,0,0,0.2388,0.2439,0.2493,0.2555,0.2578,0.2618,0.2649,0.2666,0.2714,0.2734,0.2774,0.2822,0.2877,0.2912,0.2966,0.3044,0.3058,0.3077,0.3082,0.3086,0.3093,0.3137,0.3146,0.305,0.305,0.305,0,0,0.2406,0.2448,0.2478,0.2556,0.2593,0.2646,0.2634,0.269,0.273,0.2743,0.2814,0.2845,0.2901,0.2977,0.3012,0.3004,0.3123,0.3092,0.3094,0.31,0.3143,0.3152,0.316,0.3054,0.3053,0.3052,0,0,0.2466,0.2502,0.2558,0.2595,0.265,0.2677,0.269,0.2748,0.2768,0.284,0.2851,0.2899,0.2993,0.3032,0.3064,0.3138,0.3144,0.3155,0.3182,0.3225,0.3233,0.3239,0.3266,0.3276,0.3161,0.3161,0.3161,0,0.2482,0.2561,0.2586,0.2642,0.2676,0.2688,0.2745,0.278,0.2851,0.2875,0.2864,0.2982,0.302,0.3106,0.3124,0.3149,0.3166,0.3148,0.3229,0.3236,0.3243,0.3269,0.3279,0.3162,0.3162,0.3162,0.3162,0,0.2578,0.2632,0.267,0.2737,0.2775,0.2832,0.2866,0.2902,0.2915,0.2942,0.3015,0.3062,0.3125,0.3146,0.316,0.3234,0.3227,0.3222,0.3204,0.3253,0.3278,0.3288,0.3164,0.3163,0.3163,0.3163,0,0,0.2641,0.2719,0.2733,0.2763,0.2825,0.2869,0.2926,0.2986,0.3016,0.3065,0.3114,0.3192,0.3188,0.3225,0.3243,0.328,0.3336,0.3271,0.3273,0.3282,0.3421,0.3425,0.3436,0.334,0.3342,0.3344,0.3417,0,0.2708,0.2808,0.2833,0.2919,0.297,0.2983,0.3032,0.3076,0.3103,0.3151,0.3182,0.3237,0.3228,0.325,0.3287,0.3321,0.3365,0.3316,0.3388,0.339,0.3374,0.3449,0.3453,0.3519,0.3427,0.3428,0.343,0,0.28,0.2849,0.294,0.2995,0.3018,0.3062,0.3119,0.3164,0.3215,0.3232,0.3272,0.3286,0.3347,0.3324,0.3409,0.3376,0.3406,0.3427,0.3431,0.3439,0.3413,0.346,0.3541,0.3551,0.3445,0.3444,0.3443,0,0.2837,0.2926,0.2992,0.3018,0.3083,0.3114,0.3143,0.3192,0.3226,0.3277,0.33,0.3357,0.3388,0.3433,0.3462,0.3443,0.3544,0.3524,0.3561,0.3561,0.3583,0.3581,0.3671,0.3601,0.3601,0.3601,0.3601,0,0.291,0.2966,0.301,0.305,0.3113,0.3141,0.3202,0.3232,0.3275,0.3322,0.3336,0.3381,0.3417,0.3466,0.349,0.3557,0.3571,0.3587,0.3593,0.3586,0.3584,0.3607,0.3604,0.3604,0.3603,0.3603,0.3602,0,0.2963,0.2994,0.3067,0.3123,0.3138,0.3182,0.3231,0.3271,0.3298,0.3358,0.3374,0.3417,0.3476,0.3509,0.3584,0.36,0.3674,0.3678,0.3657,0.366,0.3695,0.3691,0.3803,0.3819,0.3738,0.3739,0.374,0,0.3008,0.3051,0.3111,0.3143,0.3172,0.3224,0.3259,0.3287,0.3324,0.3384,0.3417,0.3477,0.3526,0.362,0.3659,0.3716,0.3721,0.3756,0.373,0.3722,0.3722,0.3719,0.3724,0.3761,0.3762,0.3762,0.3763,0,0.3084,0.3097,0.3147,0.3202,0.3243,0.3288,0.3332,0.3358,0.3394,0.3434,0.3494,0.3532,0.3608,0.3667,0.3727,0.3759,0.3767,0.3771,0.3782,0.3776,0.3763,0.3771,0.367,0.3768,0.3768,0.3767,0.3767,0.3767,0.3135,0.3173,0.3221,0.3276,0.3312,0.3353,0.3394,0.3426,0.3476,0.3539,0.3553,0.3616,0.3665,0.3747,0.378,0.383,0.3824,0.3841,0.3845,0.3849,0.385,0.3754,0.3841,0.3841,0.3841,0.3841,0.3841,0,0.3212,0.3243,0.3293,0.3354,0.3398,0.34,0.345,0.3486,0.3541,0.3586,0.3633,0.3702,0.376,0.3802,0.3861,0.3894,0.3899,0.3908,0.3906,0.3914,0.3852,0.3836,0.3903,0.3903,0.3903,0.3903,0.3903,0.3903,0.3257,0.3323,0.3342,0.3425,0.3457,0.3518,0.3546,0.3584,0.362,0.3696,0.3743,0.377,0.3814,0.3876,0.3929,0.3941,0.3962,0.3971,0.3982,0.3925,0.3918,0.3912,0.3897,0.3975,0.3975,0.404,0.404,0.4041]},{"header":{"parameterUnit":"m.s-1","parameterCategory":1,"la1":30.2991,"la2":30.254,"lo1":-89.0895,"lo2":-89.0444,"dy":0.0017,"dx":0.0017,"nx":28,"ny":28,"refTime":"2025-08-06T03:00:00:Z","depth":0,"parameterNumber":3,"parameterNumberName":"V-component_of_WINDS"},"data":[0,0,0,0,0,0,0,0,0,0,0,0,0,0,0,0,0,0,0,0,0,0,0,0,0,0,0,0,0,0,0,0,0,0,0,0,0,0,0,0,0,0,0,0,0,0,0,0,0,0,0,0,0,0,0,0,0,0,0.8285,0.8284,0,0.8276,0.8276,0.8275,0.8269,0.8269,0.8269,0.8269,0.826,0.826,0.8259,0,0,0,0,0,0,0,0,0,0,0,0,0,0.8295,0.8295,0.8285,0.8284,0.8284,0.8276,0.8276,0.8275,0.8269,0.8269,0.8269,0.8269,0.826,0.826,0.8259,0,0,0,0,0,0,0,0,0,0,0,0,0,0.8289,0.8295,0.8285,0.828,0.828,0.8276,0.8276,0.8275,0.8269,0.8269,0.8269,0.8269,0.826,0.826,0.8259,0.8259,0,0,0.8259,0.8258,0,0,0,0,0,0,0,0,0.8289,0.8288,0.8281,0.828,0.828,0.8273,0.8276,0.827,0.8269,0.8273,0.8269,0.8269,0.8264,0.8264,0.8262,0.8259,0.8259,0.8259,0.8258,0.8258,0.8258,0,0,0,0,0,0,0,0.8289,0.8289,0.8281,0.8281,0.828,0.8278,0.8277,0.8275,0.8269,0.8273,0.8272,0.8271,0.8264,0.8263,0.8262,0.8258,0.8259,0.8258,0.8258,0.8258,0.8253,0.8253,0,0,0,0,0,0,0.8291,0.8289,0.8281,0.8281,0.8284,0.8278,0.8277,0.8276,0.8269,0.8268,0.8271,0.8271,0.8263,0.8262,0.8262,0.826,0.8258,0.8258,0.8258,0.8253,0.8253,0.8253,0,0,0,0,0,0,0.8291,0.829,0.8282,0.8285,0.8283,0.8278,0.8276,0.8275,0.8274,0.8268,0.8267,0.8271,0.8263,0.8262,0.826,0.826,0.8258,0.8258,0.8253,0.8253,0.8253,0.8258,0,0,0,0,0,0,0.8291,0.829,0.829,0.8285,0.8283,0.828,0.8276,0.8275,0.8273,0.8273,0.8267,0.8267,0.8263,0.826,0.8259,0.8259,0.8257,0.8253,0.8253,0.8253,0.8258,0.8258,0.8258,0,0,0,0,0,0.8292,0.8292,0.829,0.829,0.8284,0.828,0.8279,0.8275,0.8273,0.8273,0.8269,0.8267,0.826,0.826,0.8259,0.8259,0.8253,0.8253,0.8253,0.8258,0.8258,0.8258,0,0,0,0,0,0,0.8298,0.8292,0.8289,0.8288,0.8285,0.8279,0.8279,0.8276,0.8273,0.8272,0.8267,0.8266,0.8264,0.8261,0.8261,0.8258,0.8256,0.8256,0.826,0.826,0.8261,0.8261,0.8257,0,0,0,0,0,0.83,0.8298,0.8292,0.8292,0.829,0.8285,0.8283,0.828,0.8276,0.8275,0.8271,0.8267,0.8264,0.8262,0.8259,0.8257,0.8255,0.8257,0.8257,0.8257,0.8257,0.8255,0.8255,0.8253,0.8253,0.8253,0,0,0.8303,0.8299,0.8298,0.8293,0.829,0.8287,0.8283,0.8281,0.8279,0.8274,0.8271,0.8268,0.8264,0.8261,0.826,0.8259,0.8257,0.8258,0.8258,0.8258,0.8255,0.8255,0.8256,0.8253,0.8253,0.8253,0,0,0.8307,0.8304,0.8303,0.8299,0.8294,0.8291,0.829,0.8285,0.8282,0.8279,0.8275,0.8273,0.8268,0.8264,0.8262,0.8263,0.826,0.8262,0.8264,0.8262,0.8262,0.8262,0.8262,0.8262,0.8262,0.8262,0.8262,0,0.8311,0.8307,0.8303,0.83,0.8298,0.8293,0.8291,0.8288,0.8282,0.8281,0.8279,0.8272,0.8269,0.8265,0.8265,0.8264,0.8263,0.8263,0.8263,0.8263,0.8263,0.8262,0.8262,0.8262,0.8262,0.8262,0.8262,0,0.8312,0.831,0.8309,0.8303,0.8301,0.8299,0.8293,0.8291,0.8288,0.8284,0.8281,0.8276,0.8272,0.8271,0.8268,0.8266,0.8266,0.8264,0.8261,0.8263,0.8263,0.8262,0.8263,0.8262,0.8262,0.8262,0,0,0.8321,0.8312,0.8311,0.8308,0.8302,0.83,0.8297,0.8292,0.829,0.8286,0.8283,0.8279,0.8276,0.8274,0.827,0.8268,0.8268,0.8266,0.8266,0.8266,0.8265,0.8267,0.8267,0.8266,0.8266,0.8266,0.8265,0,0.8323,0.8318,0.8313,0.831,0.8307,0.8302,0.8299,0.8295,0.8291,0.8287,0.8283,0.828,0.8277,0.8275,0.8273,0.8269,0.8268,0.8269,0.8263,0.8263,0.8264,0.8266,0.8268,0.8267,0.8265,0.8265,0.8265,0,0.8326,0.8321,0.8318,0.831,0.8309,0.8307,0.8301,0.8298,0.8293,0.829,0.8286,0.8283,0.8279,0.8277,0.8272,0.8272,0.827,0.8267,0.8267,0.8266,0.8264,0.8265,0.8267,0.8267,0.8265,0.8265,0.8265,0,0.8331,0.8325,0.8321,0.8319,0.831,0.8309,0.8305,0.83,0.8297,0.8292,0.829,0.8285,0.8282,0.8278,0.8273,0.8272,0.8267,0.8265,0.8264,0.8265,0.8264,0.8264,0.8265,0.8263,0.8263,0.8263,0.8263,0,0.8334,0.8332,0.8323,0.8321,0.8318,0.8312,0.8309,0.8305,0.83,0.8297,0.8292,0.8289,0.8282,0.8278,0.8274,0.8269,0.8268,0.8265,0.8264,0.8266,0.8266,0.8264,0.8263,0.8263,0.8263,0.8263,0.8263,0,0.834,0.8334,0.833,0.8322,0.832,0.8318,0.8311,0.8309,0.8304,0.83,0.8299,0.8292,0.8286,0.8281,0.8274,0.8271,0.8266,0.8265,0.8268,0.8267,0.8267,0.8267,0.8266,0.8265,0.8264,0.8264,0.8264,0,0.8342,0.834,0.8332,0.8329,0.8325,0.8321,0.8318,0.8312,0.8309,0.8301,0.8299,0.8294,0.8289,0.8281,0.8275,0.8269,0.8267,0.8268,0.8267,0.8268,0.8267,0.8267,0.8266,0.8268,0.8268,0.8268,0.8268,0,0.8346,0.8343,0.8338,0.8333,0.8329,0.8324,0.8319,0.8317,0.8309,0.8306,0.83,0.8297,0.8289,0.8283,0.8277,0.8273,0.8269,0.8268,0.8268,0.8269,0.8271,0.8269,0.8269,0.8268,0.8268,0.8268,0.8268,0.8268,0.8349,0.8347,0.834,0.8335,0.8331,0.8326,0.8323,0.8318,0.8313,0.8306,0.8303,0.8297,0.829,0.8281,0.8277,0.8272,0.8271,0.827,0.827,0.827,0.827,0.8272,0.8271,0.8271,0.8271,0.8271,0.8271,0,0.8352,0.8348,0.8343,0.8336,0.8332,0.8328,0.8322,0.8319,0.8314,0.8308,0.8303,0.8296,0.829,0.8283,0.8277,0.8274,0.8272,0.8273,0.8273,0.8272,0.8272,0.8273,0.8274,0.8274,0.8274,0.8274,0.8274,0.8274,0.8354,0.8349,0.8345,0.8338,0.8333,0.8327,0.8324,0.8319,0.8314,0.8307,0.8302,0.8297,0.8291,0.8284,0.8278,0.8276,0.8274,0.8275,0.8272,0.8272,0.8272,0.8272,0.8272,0.8274,0.8274,0.8273,0.8273,0.8273]}]]